This is the latest recevied weather packets stored in our database for station/object KE8GJZ-1. If no packets are shown the sender has not sent any weather packets the latest 10 day(s).
| Time | Temp. | Humidity | Pressure | Rain* | Wind** | Luminosity | Snow |
|---|---|---|---|---|---|---|---|
| 1777394983 | 13.33° C | 79% | 1009.5 hPa | 0 mm | - | 143 W/m² | - |
| 1777394678 | 13.33° C | 80% | 1009.5 hPa | 0 mm | - | 136 W/m² | - |
| 1777394369 | 13.33° C | 80% | 1009.3 hPa | 0 mm | - | 154 W/m² | - |
| 1777394065 | 13.33° C | 80% | 1009.4 hPa | 0 mm | - | 145 W/m² | - |
| 1777393761 | 13.33° C | 80% | 1009.5 hPa | 0 mm | - | 126 W/m² | - |
| 1777393455 | 13.33° C | 79% | 1009.4 hPa | 0 mm | - | 138 W/m² | - |
| 1777393152 | 13.89° C | 78% | 1009.5 hPa | 0 mm | - | 135 W/m² | - |
| 1777392848 | 13.89° C | 79% | 1009.4 hPa | 0 mm | - | 165 W/m² | - |
| 1777392543 | 13.89° C | 78% | 1009.3 hPa | 0 mm | - | 121 W/m² | - |
| 1777392239 | 13.89° C | 80% | 1009.3 hPa | 0 mm | - | 139 W/m² | - |
| 1777391935 | 13.89° C | 79% | 1009.1 hPa | 0 mm | - | 131 W/m² | - |
| 1777391630 | 13.89° C | 81% | 1009.3 hPa | 0 mm | - | 132 W/m² | - |
| 1777391326 | 13.89° C | 80% | 1009 hPa | 0 mm | - | 192 W/m² | - |
| 1777391024 | 13.89° C | 80% | 1008.8 hPa | 0 mm | - | 164 W/m² | - |
| 1777390719 | 13.89° C | 79% | 1008.9 hPa | 0 mm | - | 207 W/m² | - |
| 1777390416 | 13.89° C | 80% | 1008.8 hPa | 0 mm | - | 185 W/m² | - |
| 1777390112 | 13.89° C | 80% | 1008.9 hPa | 0 mm | - | 108 W/m² | - |
| 1777389809 | 13.89° C | 80% | 1008.8 hPa | 0 mm | - | 101 W/m² | - |
| 1777389506 | 13.89° C | 82% | 1008.7 hPa | 0 mm | - | 139 W/m² | - |
| 1777389203 | 13.89° C | 80% | 1008.6 hPa | 0 mm | - | 168 W/m² | - |
| 1777388901 | 13.89° C | 80% | 1008.7 hPa | 0 mm | - | 154 W/m² | - |
| 1777388596 | 13.89° C | 81% | 1008.4 hPa | 0 mm | - | 181 W/m² | - |
| 1777388293 | 13.89° C | 82% | 1008.1 hPa | 0 mm | - | 176 W/m² | - |
| 1777387987 | 13.89° C | 82% | 1008.2 hPa | 0 mm | - | 124 W/m² | - |
| 1777387685 | 14.44° C | 81% | 1008 hPa | 0 mm | - | 113 W/m² | - |
* Rain latest hour (hover to see other rain measurements)
** Current wind speed in m/s (hover to see current wind gust speed)